Location: Fremont
(37.5480°N, 121.9880°W)
Time: 11:23:42
(UTC-08:00)

Daily predictions for brighter satellites

Satellite Brightness Start Highest point End
(mag) Time Altitude Azimuth Time Altitude Azimuth Time Altitude Azimuth
Cosmos 1125 Rocket 3.6 17:19:04 10° S 17:24:18 64° ESE 17:29:33 10° NNE
Cosmos 389 Rocket 3.0 17:21:53 10° NNW 17:25:18 62° W 17:28:41 10° S
CORIOLIS 4.3 17:21:17 10° SSE 17:26:31 52° ENE 17:31:44 10° N
Cosmos 2227 Rocket 2.2 17:22:09 10° NNW 17:27:47 64° ENE 17:33:22 10° SSE
Cosmos 1271 Rocket 2.8 17:25:31 10° N 17:29:20 82° W 17:33:12 10° S
USA 238 DEB 3.8 17:23:58 10° NNW 17:31:08 77° ENE 17:38:19 10° SE
USA 238 3.8 17:24:05 10° NNW 17:31:13 76° ENE 17:38:25 10° SE
ALOS 3.5 17:29:37 10° ESE 17:32:55 19° ENE 17:36:14 10° NNE
Cosmos 1048 Rocket 4.2 17:29:16 10° N 17:34:31 51° ENE 17:39:42 10° SE
Cosmos 372 Rocket 4.0 17:30:24 10° SSW 17:35:35 78° ESE 17:40:47 10° NNE
SJ-7 4.4 17:32:34 10° SSE 17:36:34 89° W 17:40:34 10° NNW
USA 161 4.4 17:35:31 10° NNW 17:37:40 18° WNW 17:39:52 10° WSW
Meteor 2-9 Rocket 4.1 17:36:04 10° N 17:41:32 69° E 17:46:50 10° SSE
Cosmos 1980 Rocket 3.0 17:37:13 10° SSE 17:42:07 31° ESE 17:46:52 11° NE
Cosmos 1666 3.4 17:40:41 10° NNW 17:44:21 55° W 17:48:00 10° S
Cosmos 1484 Rocket 3.3 17:44:02 10° S 17:48:01 68° W 17:52:01 10° NNW
Meteor 1-23 Rocket 4.3 17:45:43 10° S 17:51:24 65° E 17:57:02 10° NNE
Cosmos 1656 3.8 17:45:58 10° SSW 17:51:33 79° WNW 17:57:05 10° NNE
Cosmos 2297 Rocket 2.2 17:48:29 10° NNW 17:54:11 90° ENE 17:59:50 10° SSE
Cosmos 1455 Rocket 4.0 17:50:46 10° NNW 17:55:02 51° W 17:59:16 10° SSW
PSLV R/B 3.7 17:52:32 10° WNW 17:55:34 41° N 17:57:06 23° ENE
NOSS 3-2 (A) 4.0 17:51:38 10° NNW 17:59:15 70° NE 18:07:29 10° SE
USA 116 3.3 17:58:38 10° N 18:01:45 69° WNW 18:04:49 10° SSW
YAOGAN 1 2.4 17:59:06 10° SSE 18:03:24 76° ENE 18:07:44 10° N
Cosmos 2266 Rocket 4.0 17:58:40 10° N 18:04:48 88° W 18:11:00 10° S
SL-24 R/B - RUBIN 2 4.4 17:58:39 10° SSW 18:04:54 66° ESE 18:09:29 16° NE
Cosmos 158 Rocket 4.5 17:59:58 10° NNW 18:04:56 60° WSW 18:09:46 10° S
Lacrosse 5 rocket 3.5 18:03:43 10° SE 18:05:08 12° ESE 18:05:08 12° ESE
NOSS 3-2 (C) 4.1 18:00:06 10° NNW 18:07:38 61° NE 18:15:48 10° SE
Atlas Centaur 2 4.0 18:03:20 10° WSW 18:07:50 24° SSW 18:11:36 10° SSE
DELTA 2 R/B (1) 3.5 18:03:19 10° WNW 18:08:53 78° N 18:12:36 22° E
ISS -1.3 18:06:42 10° WNW 18:09:24 24° SW 18:12:06 10° S
NOAA 12 4.3 18:04:27 10° SE 18:09:26 45° ENE 18:14:25 10° N
ATLAS 3B R/B 3.2 18:04:34 10° NW 18:11:04 59° WSW 18:17:26 10° SSE
ATLAS 2AS CENTAUR R/B 4.5 18:05:22 10° WSW 18:12:10 31° NW 18:19:13 10° NNE
IRS-1A Rocket 4.4 18:09:41 10° S 18:15:17 78° WSW 18:20:50 10° NNW
RESURS DK-1 2.7 18:14:48 10° S 18:18:41 42° ESE 18:19:43 35° ENE
USA 215 3.4 18:13:42 10° SE 18:20:14 76° SW 18:26:47 10° NW
SJ 16-02 3.1 18:18:10 10° SW 18:22:04 31° WNW 18:26:00 10° N
COSMO-SKYMED 1 2.6 18:17:59 10° N 18:22:20 79° WNW 18:26:40 10° SSW
METEOR-M 4.3 18:18:42 10° S 18:24:01 77° WSW 18:29:23 10° NNW
SL-16 R/B 3.4 18:20:42 10° SSE 18:24:28 23° ESE 18:24:28 23° ESE
FENGYUN 3A 3.5 18:20:08 10° SSE 18:25:27 66° ENE 18:30:47 10° N
S3M 4.3 18:20:19 10° SSE 18:25:54 38° E 18:28:55 23° NE
Hubble Space Telescope 3.6 18:27:22 10° SW 18:28:35 11° SSW 18:29:49 10° S
Cosmos 2322 Rocket 3.3 18:24:55 10° SSE 18:28:30 23° ESE 18:28:30 23° ESE
DMSP B5D1-3 4.4 18:26:58 14° NNE 18:31:25 71° ESE 18:36:29 10° S
Cosmos 1515 4.4 18:27:56 10° SSW 18:31:38 52° W 18:35:20 10° N
Shenzhou-11 Module 4.1 18:29:25 10° SSW 18:30:56 18° SSE 18:30:56 18° SSE
NOSS 3-4 (A) 3.8 18:26:51 10° SW 18:32:59 62° NW 18:37:53 18° NNE
NOSS 3-4 (C) 3.8 18:26:57 10° SW 18:33:05 63° NW 18:37:57 18° NNE
Cosmos 2360 4.1 18:28:39 10° SSW 18:34:22 81° ESE 18:38:00 24° NNE
EO 1 Del DPAF 3.5 18:32:39 18° N 18:35:24 65° WNW 18:39:11 10° SSW
CZ-4 R/B 3.6 18:33:59 10° SSW 18:37:14 26° W 18:40:34 10° NW
H-2A R/B 3.7 18:36:46 10° SSW 18:38:39 18° SSE 18:38:39 18° SSE
Cosmos 2344 4.1 18:33:13 10° S 18:40:00 34° ESE 18:41:25 32° E
NOSS 2-2 (D) 3.2 18:36:50 10° SSW 18:40:40 69° ESE 18:40:59 65° E
Cosmos 1244 Rocket 4.3 18:34:57 10° N 18:41:08 80° E 18:47:19 10° S
DELTA 2 R/B (2) 4.4 18:40:57 10° WSW 18:43:33 72° SW 18:43:33 72° SW
Cosmos 1025 Rocket 3.8 18:39:49 10° SSW 18:44:00 50° W 18:48:04 11° N
Cosmos 1697 Rocket 3.7 18:39:01 10° SW 18:44:22 43° WNW 18:49:25 11° N
ERS-2 2.7 18:41:44 10° S 18:45:19 56° WSW 18:48:57 10° NNW
BREEZE-M DEB (TANK) 4.2 18:42:53 10° NW 18:46:21 61° NE 18:49:07 35° ESE
SPOT 3 Rocket 3.7 18:43:44 10° S 18:48:54 74° WSW 18:54:05 10° NNW
CENTAUR R/B 3.2 18:42:54 10° NNW 18:50:39 52° NE 18:54:02 35° ESE
Okean 1-7 Rocket 4.1 18:47:00 10° SSW 18:51:18 58° W 18:54:24 19° N
NOSS 2-2 (E) 3.5 18:52:21 10° SW 18:56:13 66° NW 18:56:30 63° NNW
Cosmos 1184 Rocket 4.1 18:54:11 10° SSW 18:56:22 36° SW 18:56:22 36° SW
Cosmos 1553 Rocket 3.9 18:52:13 10° S 18:58:38 83° E 19:03:58 16° N
Cosmos 494 Rocket 4.1 18:54:51 10° NNW 19:00:07 75° WSW 19:05:19 10° S
SL-08 R/B 4.3 18:54:46 10° N 19:01:03 75° E 19:07:12 10° SSE
Thor Agena Rocket 3.5 19:01:50 65° ESE 19:01:50 65° ESE 19:06:51 10° S
Cosmos 1417 Rocket 4.5 18:55:53 10° S 19:02:02 80° W 19:08:17 10° N
NOSS 2-2 (C) 3.7 18:59:21 10° SW 19:02:55 63° W 19:02:55 63° W
Cosmos 2251 Rocket 3.3 18:58:24 10° NNW 19:03:41 77° ENE 19:03:45 77° E
ALOS 3.6 19:05:43 10° SSW 19:10:03 38° W 19:14:25 10° NNW
Cosmos 1745 Rocket 3.8 19:08:10 10° N 19:14:24 77° E 19:20:41 10° S
Cosmos 1606 Rocket 4.3 19:11:32 10° NNW 19:16:16 50° WSW 19:19:57 10° S
Gblst 52 Del rocket 4.3 19:11:35 10° NW 19:17:23 82° SW 19:18:15 67° SSE
FengYun 1-2 T 4.2 19:11:48 10° SSE 19:17:25 83° WSW 19:23:06 10° NNW
SL-8 R/B 4.3 19:17:26 10° WSW 19:21:16 55° WSW 19:21:16 55° WSW
Cosmos 1980 Rocket 3.6 19:20:53 10° SW 19:26:00 34° WNW 19:28:41 23° NNW
Lacrosse 5 rocket 3.9 19:39:43 10° SW 19:40:52 18° SW 19:40:52 18° SW
SL-16 R/B 3.8 20:03:23 10° SW 20:06:25 29° WSW 20:06:25 29° WSW
Cosmos 2322 Rocket 4.0 20:07:45 10° SW 20:10:23 26° WSW 20:10:23 26° WSW
CENTAUR R/B 4.2 20:33:56 10° NW 20:41:19 39° WSW 20:41:22 39° WSW
